Location: *
(33.1860°S, 83.4528°E)
Time: 22:19:10
(UTC+00:00)

Daily predictions for brighter satellites

Satellite Brightness Start Highest point End
(mag) Time Altitude Azimuth Time Altitude Azimuth Time Altitude Azimuth
Cosmos 407 Rocket 3.9 12:01:44 10° SSW 12:07:03 71° WNW 12:12:21 10° N
CZ-4B R/B 4.0 12:03:44 10° SSE 12:07:17 45° E 12:10:51 10° N
Cosmos 2237 Rocket 2.6 12:02:54 10° S 12:08:20 42° ESE 12:13:39 10° NE
Lacrosse 4 Rocket 3.3 12:08:57 10° NE 12:11:04 13° ENE 12:12:27 12° E
SMAP 3.6 12:08:57 10° SSE 12:13:21 38° E 12:17:41 10° NNE
Meteor 1-26 Rocket 4.4 12:08:51 10° S 12:14:57 78° E 12:20:57 10° NNE
Lacrosse 5 4.2 12:14:24 10° WSW 12:17:17 15° SSW 12:20:11 10° S
BREEZE-M DEB (TANK) 2.4 12:16:26 10° SW 12:19:25 85° SE 12:27:08 10° NE
COSMOS 2428 3.7 12:14:00 10° SSW 12:19:34 52° WNW 12:25:04 10° N
Cosmos 2221 2.9 12:18:19 10° SSW 12:22:36 68° W 12:26:49 10° N
Cosmos 2151 3.0 12:18:32 10° N 12:22:43 80° W 12:26:59 10° S
S3M 4.5 12:17:07 10° NNW 12:23:11 63° W 12:29:19 10° S
CZ-4C R/B 2.7 12:18:42 10° SW 12:23:22 49° WNW 12:27:23 10° N
Cosmos 2297 Rocket 3.2 12:17:59 10° NW 12:23:26 48° WSW 12:28:56 10° S
ATLAS 2AS CENTAUR R/B 2.7 12:17:27 10° NNW 12:23:54 79° WSW 12:30:37 10° SSE
SJ-11-01 4.3 12:20:32 10° SSE 12:25:13 63° E 12:29:51 10° N
Cosmos 1954 Rocket 3.9 12:20:15 10° S 12:25:29 67° ESE 12:30:42 10° NNE
SL-16 R/B 3.5 12:23:29 10° SSE 12:27:27 19° ESE 12:28:45 17° ESE
Cosmos 1745 Rocket 4.3 12:22:13 10° S 12:28:29 76° W 12:34:46 10° N
Cosmos 1709 Rocket 4.0 12:25:30 10° S 12:31:54 73° E 12:38:16 10° NNE
BREEZE-M DEB (TANK) 3.3 12:29:20 10° WSW 12:32:06 70° NW 12:39:31 10° NE
Cosmos 1331 Rocket 4.2 12:29:03 10° N 12:33:58 47° ENE 12:38:13 14° SSE
USA 276 1.8 12:31:40 10° SW 12:34:20 72° NW 12:36:35 14° NE
ARGOS 3.4 12:29:00 10° S 12:34:25 71° WSW 12:39:46 10° NNW
Cosmos 1242 Rocket 3.0 12:36:01 10° NNE 12:39:07 33° E 12:39:42 31° ESE
Cosmos 2219 3.2 12:36:20 10° NNW 12:42:02 87° WSW 12:47:47 10° SSE
Cosmos 405 Rocket 2.6 12:39:25 10° S 12:43:21 68° E 12:47:17 10° NNE
CZ-4C R/B 3.9 12:40:49 10° N 12:44:17 53° W 12:47:56 10° SSW
Cosmos 1980 3.8 12:40:31 10° SSW 12:46:14 83° WNW 12:51:54 10° NNE
Cosmos 2227 Rocket 3.1 12:45:37 10° NW 12:51:05 49° WSW 12:56:38 10° S
Cosmos 1500 3.1 12:51:09 10° N 12:54:47 58° E 12:55:51 40° SE
FALCON 9 R/B 3.7 12:26:44 10° WNW 12:54:48 77° NNE 12:59:32 28° E
OAO 1 4.5 12:49:59 10° WNW 12:55:30 88° SSW 12:57:57 35° ESE
Cosmos 676 Rocket 4.3 12:52:04 10° SSW 12:57:17 70° WNW 13:02:29 10° N
Meteor 1-10 Rocket 4.3 12:54:45 10° S 13:00:28 56° E 13:06:00 10° NNE
GOES 2 Rocket 4.5 12:57:10 10° NW 13:00:33 23° NNE 13:01:35 21° NE
AQUARIUS 4.3 12:57:07 10° S 13:01:39 74° WSW 13:06:07 10° NNW
SEDSat Delta rocket 3.1 12:58:51 10° W 13:03:23 67° N 13:04:33 44° ENE
CZ-4B R/B 4.4 13:00:03 10° S 13:04:38 45° WSW 13:09:09 10° NW
USA 281 4.4 13:10:49 23° SSE 13:10:49 23° SSE 13:14:05 10° S
OAO 3 Copernicus 4.3 13:07:40 10° WNW 13:12:43 76° NNE 13:13:48 55° E
Cosmos 2263 Rocket 2.1 13:08:06 10° N 13:13:43 69° ENE 13:15:44 40° SE
USA 81 4.1 13:09:01 10° NNE 13:14:10 56° E 13:15:21 46° SE
Tiangong 0.3 13:15:47 10° SW 13:16:50 16° SSW 13:16:50 16° SSW
SeaSat 1 2.6 13:20:37 53° ENE 13:20:37 53° ENE 13:25:13 10° N
NOAA 6 3.9 13:19:37 35° SSE 13:21:53 84° ENE 13:27:00 10° NNW
Spot 1 4.0 13:17:33 10° NNE 13:21:58 84° ESE 13:26:43 10° SSW
Cosmos 2082 4.2 13:25:15 10° NW 13:30:51 58° WSW 13:33:58 26° S
H-2A R/B 4.1 13:32:16 10° WNW 13:35:54 25° N 13:44:41 10° NE
OAO 2 Rocket 3.3 13:32:05 10° W 13:36:39 73° WSW 13:36:39 73° WSW
Nadezhda 1 Rocket 3.8 13:36:12 10° N 13:42:17 82° E 13:43:04 69° SSE
ATLAS 5 CENTAUR R/B 2.8 13:38:39 10° NNW 13:46:14 86° WSW 13:48:17 53° SSE
Cosmos 1666 4.5 13:42:45 10° NNW 13:45:01 29° WNW 13:45:01 29° WNW
Lacrosse 4 Rocket 2.7 13:45:00 10° NW 13:48:37 41° W 13:48:37 41° W
Cosmos 2074 Rocket 4.1 13:45:40 10° S 13:51:56 73° W 13:58:07 10° N
ATLAS CENTAUR R/B 3.6 13:50:45 10° NW 13:51:49 18° NW 13:51:49 18° NW
ATLAS 3B R/B 3.8 13:53:30 10° SSW 13:56:29 28° S 13:56:29 28° S
SL-16 R/B 3.0 14:06:18 10° SSW 14:10:46 46° WSW 14:10:46 46° WSW
Kakehashi 4.4 14:26:06 10° W 14:30:47 57° NW 14:30:47 57° NW
Lacrosse 4 Rocket 4.5 22:19:02 13° E 22:19:02 13° E 22:19:47 10° ENE
ATLAS CENTAUR R/B 4.3 22:21:01 17° E 22:21:01 17° E 22:22:26 10° ENE
ATLAS 5 CENTAUR R/B 3.4 22:44:16 27° ENE 22:44:16 27° ENE 22:46:16 10° NE
CZ-3 R/B 4.3 22:37:21 42° W 22:46:30 52° NW 22:57:52 10° NE
H-2A R/B 2.8 22:43:31 10° NNE 22:47:31 50° NE 22:47:31 50° NE
OAO 3 Rocket 4.3 22:54:08 41° ENE 22:54:08 41° ENE 22:57:40 10° E
USA 305 4.5 23:04:36 28° ESE 23:04:36 28° ESE 23:07:09 10° ENE
CZ-3A R/B 4.2 23:05:55 20° N 23:05:55 20° N 23:08:23 10° NE
SL-16 R/B 3.1 23:03:01 10° N 23:08:25 47° ENE 23:13:52 10° SSE
Atlas Centaur 2 2.1 23:10:58 54° NE 23:10:58 54° NE 23:15:13 10° E
Cosmos 2322 Rocket 3.9 23:06:54 10° NNE 23:11:48 32° ENE 23:16:44 10° SE
SL-4 R/B 3.0 23:12:07 43° NNE 23:12:39 46° NE 23:16:59 10° ESE
Cosmos 2360 Rocket 4.4 23:14:27 10° NNE 23:18:54 25° ENE 23:23:25 10° SE
Meteor 1-29 4.3 23:20:38 10° NE 23:22:50 34° ENE 23:22:50 34° ENE
USA 308 3.8 23:24:58 31° NE 23:24:58 31° NE 23:26:45 10° NE
S3M 3.9 23:17:40 10° S 23:23:59 88° E 23:30:18 10° N
OAO 1 Rocket 4.4 23:24:05 62° WNW 23:24:45 69° NNW 23:30:05 10° ENE
Cosmos 2219 3.7 23:25:51 40° NW 23:25:51 40° NW 23:30:12 10° N
Cosmos 1553 Rocket 4.2 23:26:56 46° WNW 23:26:56 46° WNW 23:32:20 10° NNW
Cosmos 2266 Rocket 3.8 23:24:40 10° NNW 23:30:42 62° W 23:36:45 10° S
Cosmos 2227 Rocket 3.9 23:35:51 17° NW 23:35:51 17° NW 23:37:36 10° NNW
SL-08 ROCKET BODY 4.4 23:27:28 10° N 23:33:20 81° E 23:39:21 10° S
SL-8 R/B 3.6 23:33:14 56° SW 23:34:14 81° SE 23:39:01 10° NE
Cosmos 1862 3.1 23:35:17 59° S 23:36:00 90° WSW 23:39:54 10° N
USA 306 3.1 23:40:05 39° N 23:40:05 39° N 23:42:31 10° NNE
SJ-7 4.2 23:37:56 10° N 23:41:54 76° W 23:43:02 45° SSW
USA 307 2.4 23:43:12 68° W 23:43:34 76° NW 23:47:19 10° NE
Meteor 2-12 Rocket 4.5 23:42:08 10° N 23:48:12 83° E 23:54:20 10° S
Cosmos 2278 4.1 23:49:57 27° WNW 23:52:09 37° WSW 23:57:27 10° S
CZ-2D R/B 3.1 23:48:58 10° N 23:52:45 72° W 23:54:53 25° SSW
ARGOS 3.1 23:47:31 10° N 23:52:55 67° WNW 23:58:24 10° SSW
Lacrosse 4 Rocket 2.5 23:55:14 28° WNW 23:55:14 28° WNW 23:58:34 10° NNW
BlueWalker 3 4.4 23:53:15 10° N 23:56:27 24° NE 23:59:40 10° ESE
